Marathon, FL

1:15 AM EDT on July 28, 2017 (GMT -0400)
Florida Keys Marathon

Weather History for KMTH - July, 2013

Change the Weather History Date:

Monday, July 29, 2013

  Actual Average Record
Temperature  
Mean Temperature 88 °F 85 °F  
Max Temperature 93 °F 91 °F 95 °F (2005)
Min Temperature 82 °F 80 °F 74 °F (2007)
Degree Days  
Heating Degree Days 0 0  
Month to date heating degree days 0 0  
Since 1 June heating degree days 0 0  
Since 1 July heating degree days 0 0  
Cooling Degree Days 23 20  
Month to date cooling degree days 579 580  
Year to date cooling degree days 3025 2717  
Since 1 June cooling degree days 1195 1174  
Growing Degree Days 38 (Base 50)    
Moisture  
Dew Point 74 °F    
Average Humidity 63    
Maximum Humidity 74    
Minimum Humidity 52    
Precipitation  
Precipitation 0.00 in 0.16 in 0.43 in (2007)
Month to date precipitation 7.94 3.97  
Year to date precipitation 36.95 21.52  
Snow  
Snow 0.00 in - - ()
Month to date snowfall 0.0  
Since 1 June snowfall 0.0  
Since 1 July snowfall 0.0  
Snow Depth 0.00 in    
Sea Level Pressure  
Sea Level Pressure 30.07 in    
Wind  
Wind Speed 6 mph (East)    
Max Wind Speed 13 mph    
Max Gust Speed 18 mph    
Visibility 10 miles    
Events      
T = Trace of Precipitation, MM = Missing Value Source: NWS Daily Summary

Daily Weather History Graph

Daily Weather History Graph

Search for Another Location

Airport or City:

Trip Planner

Search our weather history database for the weather conditions in past years. The results will help you decide how hot, cold, wet, or windy it might be!

Date:

Astronomy

Jul. 29, 2013 Rise Set
Actual Time 6:50 AM EDT 8:10 PM EDT
Civil Twilight 6:26 AM EDT 8:34 PM EDT
Nautical Twilight 5:57 AM EDT 9:03 PM EDT
Astronomical Twilight 5:26 AM EDT 9:34 PM EDT
Moon 12:22 AM EDT (7/29) 1:37 PM EDT (7/29)
Length of Visible Light 14h 08m
Length of Day
13h 19m
Waning Gibbous, 51% of the Moon is Illuminated
Jul 29
Waning Gibbous
Jul 29
Last Quarter
Aug 6
New
Aug 14
First Quarter
Aug 20
Full

Hourly Weather History & Observations

Time (EDT) Temp. Heat Index Dew Point Humidity Pressure Visibility Wind Dir Wind Speed Gust Speed Precip Events Conditions
12:53 AM 84.9 °F 91.4 °F 73.0 °F 67% 30.05 in 10.0 mi East 3.5 mph - N/A   Clear
1:53 AM 84.9 °F 92.1 °F 73.9 °F 69% 30.03 in 10.0 mi Variable 4.6 mph - N/A   Partly Cloudy
2:53 AM 84.9 °F 91.4 °F 73.0 °F 67% 30.02 in 10.0 mi Variable 3.5 mph - N/A   Partly Cloudy
3:53 AM 84.9 °F 92.1 °F 73.9 °F 69% 30.02 in 10.0 mi East 3.5 mph - N/A   Scattered Clouds
4:53 AM 84.0 °F 90.2 °F 73.0 °F 69% 30.01 in 10.0 mi ESE 3.5 mph - N/A   Clear
5:53 AM 84.0 °F 90.2 °F 73.0 °F 69% 30.02 in 10.0 mi Calm Calm - N/A   Clear
6:53 AM 84.9 °F 91.4 °F 73.0 °F 67% 30.04 in 10.0 mi ESE 3.5 mph - N/A   Partly Cloudy
7:53 AM 84.9 °F 92.1 °F 73.9 °F 69% 30.06 in 10.0 mi ESE 3.5 mph - N/A   Partly Cloudy
8:53 AM 86.0 °F 93.8 °F 73.9 °F 67% 30.07 in 10.0 mi Calm Calm - N/A   Clear
9:53 AM 89.1 °F 99.1 °F 75.0 °F 63% 30.09 in 10.0 mi ESE 5.8 mph - N/A   Clear
10:53 AM 88.0 °F 96.5 °F 73.9 °F 63% 30.10 in 10.0 mi Variable 3.5 mph - N/A   Clear
11:53 AM 91.0 °F 101.6 °F 75.0 °F 59% 30.11 in 10.0 mi Variable 5.8 mph - N/A   Clear
12:53 PM 91.0 °F 101.6 °F 75.0 °F 59% 30.10 in 10.0 mi East 8.1 mph - N/A   Partly Cloudy
1:53 PM 91.0 °F 100.4 °F 73.9 °F 57% 30.09 in 10.0 mi East 9.2 mph - N/A   Clear
2:53 PM 91.9 °F 103.2 °F 75.0 °F 58% 30.09 in 10.0 mi Variable 6.9 mph - N/A   Partly Cloudy
3:53 PM 91.0 °F 100.4 °F 73.9 °F 57% 30.07 in 10.0 mi East 10.4 mph - N/A   Clear
4:53 PM 90.0 °F 95.4 °F 70.0 °F 52% 30.06 in 10.0 mi East 9.2 mph - N/A   Clear
5:53 PM 90.0 °F 99.0 °F 73.9 °F 59% 30.09 in 10.0 mi East 8.1 mph - N/A   Clear
6:53 PM 88.0 °F 96.5 °F 73.9 °F 63% 30.09 in 10.0 mi ESE 5.8 mph - N/A   Clear
7:53 PM 86.0 °F 92.2 °F 72.0 °F 63% 30.09 in 10.0 mi East 5.8 mph - N/A   Clear
8:53 PM 86.0 °F 93.0 °F 73.0 °F 65% 30.09 in 10.0 mi East 8.1 mph - N/A   Clear
9:53 PM 86.0 °F 93.0 °F 73.0 °F 65% 30.10 in 10.0 mi East 8.1 mph - N/A   Clear
10:53 PM 84.9 °F 92.1 °F 73.9 °F 69% 30.11 in 10.0 mi East 4.6 mph - N/A   Clear
11:53 PM 84.9 °F 93.3 °F 75.0 °F 72% 30.12 in 10.0 mi East 6.9 mph - N/A   Partly Cloudy